Weather reports worldwide

Advertisment
San Sebastian/Fuenterrabia, Spain (8029): temperature & dewpoint: 15.01.2020 05:00:00 - 21.01.2020 05:00:00 (CET)San Sebastian/Fuenterrabia, Spain (8029): wind speed: 15.01.2020 05:00:00 - 21.01.2020 05:00:00 (CET)San Sebastian/Fuenterrabia, Spain (8029): wind direction: 15.01.2020 05:00:00 - 21.01.2020 05:00:00 (CET)San Sebastian/Fuenterrabia, Spain (8029): reduced air pressure: 15.01.2020 05:00:00 - 21.01.2020 05:00:00 (CET)San Sebastian/Fuenterrabia, Spain (8029): visibility: 15.01.2020 05:00:00 - 21.01.2020 05:00:00 (CET)
Date & Time tt [°C] td [°C] ff [km/h] ff [kn] dd ppp [hPa] vv [km]
21.01.2020 05:00:00 0,0 -1,0 4 2 - - 10
21.01.2020 04:00:00 0,0 -1,0 5 3 SSW - 10
21.01.2020 03:00:00 0,0 -2,0 2 1 - - 10
21.01.2020 02:00:00 1,0 -1,0 4 2 - - 10
21.01.2020 01:00:00 2,0 -1,0 4 2 - - 10
21.01.2020 00:00:00 2,0 0,0 4 2 - - 10
20.01.2020 23:00:00 3,0 -1,0 2 1 - - 10
20.01.2020 22:00:00 4,0 0,0 2 1 - - 10
20.01.2020 21:00:00 5,0 -1,0 8 4 E - 10
20.01.2020 20:00:00 6,0 -1,0 13 7 E - 10
20.01.2020 19:00:00 5,5 0,3 0 0 N 1034,9 30
20.01.2020 18:00:00 5,0 0,0 5 3 SW - 10
20.01.2020 17:00:00 5,0 -1,0 5 3 SSW - 10
20.01.2020 16:00:00 5,4 -0,8 8 4 E 1034,8 30
20.01.2020 15:00:00 5,0 0,0 8 4 NNE - 10
20.01.2020 14:00:00 5,0 -1,0 5 3 NE - 10
20.01.2020 13:00:00 4,4 -1,6 9 5 E 1036,1 10
20.01.2020 12:00:00 4,0 -1,0 9 5 E - 10
20.01.2020 11:00:00 3,0 -1,0 13 7 ENE - 10
20.01.2020 10:00:00 2,6 -1,4 9 5 ENE 1036,7 30
20.01.2020 09:00:00 2,0 -1,0 4 2 - - 10
20.01.2020 08:00:00 1,0 -2,0 8 4 E - 10
20.01.2020 07:00:00 1,5 -1,1 4 2 - 1036,0 10
20.01.2020 06:00:00 2,0 -1,0 0 0 N - 10
20.01.2020 05:00:00 2,0 -1,0 2 1 - - 10
20.01.2020 04:00:00 3,0 -1,0 5 3 E - 10
20.01.2020 03:00:00 2,0 -1,0 4 2 - - 10
20.01.2020 02:00:00 4,0 -1,0 9 5 E - 10
20.01.2020 01:00:00 4,0 -1,0 13 7 E - 10
20.01.2020 00:00:00 5,0 -1,0 18 10 E - 10
19.01.2020 23:00:00 6,0 0,0 34 18 ENE - 10
19.01.2020 22:00:00 6,0 0,0 39 21 NE - 10
19.01.2020 21:00:00 7,0 0,0 34 18 NE - 10
19.01.2020 20:00:00 8,0 1,0 41 22 NE - 10
19.01.2020 19:00:00 8,7 -1,7 41 22 NE 1034,7 30
19.01.2020 18:00:00 9,0 -1,0 35 19 NE - 10
19.01.2020 17:00:00 10,0 0,0 29 16 NE - 10
19.01.2020 16:00:00 10,0 -2,3 9 5 NNE 1033,0 30
19.01.2020 15:00:00 9,0 0,0 22 12 NNE - 10
19.01.2020 14:00:00 9,0 1,0 15 8 NNE - 10
19.01.2020 13:00:00 8,3 -0,2 18 10 NE 1033,6 10
19.01.2020 12:00:00 8,0 3,0 21 11 NE - 10
19.01.2020 11:00:00 7,0 2,0 15 8 ENE - 10
19.01.2020 10:00:00 6,9 2,0 15 8 E 1031,5 30
19.01.2020 09:00:00 7,0 3,0 22 12 ENE - 10
19.01.2020 08:00:00 7,0 4,0 5 3 NNE - 10
19.01.2020 07:00:00 7,2 4,3 13 7 ENE 1027,8 15
19.01.2020 06:00:00 7,0 5,0 11 6 NE - 10
19.01.2020 05:00:00 7,0 6,0 15 8 ENE - 10
19.01.2020 04:00:00 8,0 7,0 18 10 ENE - 8
19.01.2020 03:00:00 8,0 8,0 11 6 W - 7
19.01.2020 02:00:00 8,0 7,0 9 5 SSW - 10
19.01.2020 01:00:00 9,0 7,0 11 6 SW - 10
19.01.2020 00:00:00 8,0 7,0 11 6 SSW - 8
18.01.2020 23:00:00 9,0 7,0 16 9 WSW - 10
18.01.2020 22:00:00 9,0 7,0 21 11 SW - 10
18.01.2020 21:00:00 9,0 8,0 18 10 SW - 9
18.01.2020 20:00:00 10,0 8,0 16 9 WSW - 8
18.01.2020 19:00:00 13,8 5,2 37 20 W 1019,0 5
18.01.2020 18:00:00 14,0 5,0 15 8 SE - 10
18.01.2020 17:00:00 15,0 5,0 15 8 SSE - 10
18.01.2020 16:00:00 15,8 3,6 9 5 SE 1017,8 10
18.01.2020 15:00:00 14,0 4,0 13 7 SSE - 10
18.01.2020 14:00:00 14,0 4,0 18 10 S - 10
18.01.2020 13:00:00 14,6 2,2 24 13 S 1022,5 25
18.01.2020 12:00:00 13,0 4,0 16 9 SSE - 10
18.01.2020 11:00:00 11,0 5,0 11 6 S - 10
18.01.2020 10:00:00 6,4 5,5 4 2 - 1025,9 10
18.01.2020 09:00:00 7,0 5,0 5 3 - - 10
18.01.2020 08:00:00 7,0 5,0 5 3 SSW - 10
18.01.2020 07:00:00 6,4 5,5 5 3 SSW 1028,6 20
18.01.2020 06:00:00 7,0 5,0 0 0 N - 10
18.01.2020 05:00:00 7,0 5,0 8 4 SSW - 10
18.01.2020 04:00:00 6,0 5,0 5 3 SSW - 10
18.01.2020 03:00:00 6,0 6,0 4 2 - - 10
18.01.2020 02:00:00 6,0 5,0 5 3 S - 10
18.01.2020 01:00:00 7,0 6,0 5 3 SSW - 10
18.01.2020 00:00:00 7,0 6,0 8 4 SSE - 10
17.01.2020 23:00:00 8,0 6,0 5 3 SSE - 10
17.01.2020 22:00:00 8,0 7,0 8 4 SSW - 10
17.01.2020 21:00:00 9,0 7,0 5 3 - - 4,5
17.01.2020 20:00:00 9,0 6,0 9 5 SW - 10
17.01.2020 19:00:00 9,9 5,5 11 6 W 1033,1 10
17.01.2020 18:00:00 11,0 7,0 8 4 WNW - 10
17.01.2020 17:00:00 11,0 7,0 9 5 W - 10
17.01.2020 16:00:00 10,8 6,6 18 10 NW 1031,1 10
17.01.2020 15:00:00 12,0 6,0 24 13 WSW - 10
17.01.2020 14:00:00 12,0 7,0 18 10 WSW - 10
17.01.2020 13:00:00 11,1 8,5 9 5 SW 1029,9 18
17.01.2020 12:00:00 10,0 8,0 9 5 WSW - 10
17.01.2020 11:00:00 11,0 8,0 16 9 WSW - 9
17.01.2020 10:00:00 9,9 7,3 24 13 W 1028,3 7
17.01.2020 09:00:00 10,0 8,0 18 10 WSW - 6
17.01.2020 08:00:00 10,0 8,0 18 10 NW - 5
17.01.2020 07:00:00 13,5 6,6 11 6 SSW 1023,6 9
17.01.2020 06:00:00 15,0 5,0 9 5 WSW - 10
17.01.2020 05:00:00 15,0 4,0 15 8 SW - 10
17.01.2020 04:00:00 16,0 4,0 16 9 WSW - 10
17.01.2020 03:00:00 16,0 5,0 24 13 SSW - 10
17.01.2020 02:00:00 17,0 5,0 26 14 SW - 10
17.01.2020 01:00:00 16,0 4,0 22 12 SSW - 10
17.01.2020 00:00:00 17,0 5,0 16 9 SSW - 10
16.01.2020 23:00:00 17,0 5,0 16 9 SSW - 10
16.01.2020 22:00:00 17,0 7,0 11 6 S - 10
16.01.2020 21:00:00 16,0 7,0 11 6 S - 10
16.01.2020 20:00:00 17,0 8,0 16 9 S - 10
16.01.2020 19:00:00 17,3 5,9 26 14 S 1019,5 10
16.01.2020 18:00:00 17,0 8,0 8 4 SSE - 10
16.01.2020 17:00:00 18,0 7,0 22 12 S - 10
16.01.2020 16:00:00 17,8 6,0 26 14 SSE 1019,5 30
16.01.2020 15:00:00 18,0 8,0 18 10 S - 10
16.01.2020 14:00:00 18,0 8,0 18 10 SSE - 10
16.01.2020 13:00:00 17,9 5,2 15 8 SSE 1022,1 30
16.01.2020 12:00:00 17,0 7,0 22 12 S - 10
16.01.2020 11:00:00 17,0 7,0 16 9 SSE - 10
16.01.2020 10:00:00 15,6 4,3 21 11 S 1022,1 30
16.01.2020 09:00:00 15,0 6,0 24 13 S - 10
16.01.2020 08:00:00 15,0 6,0 22 12 SSW - 10
16.01.2020 07:00:00 14,6 4,6 15 8 SSE 1021,7 10
16.01.2020 06:00:00 14,0 6,0 16 9 S - 10
16.01.2020 05:00:00 14,0 6,0 21 11 S - 10
16.01.2020 04:00:00 13,0 6,0 15 8 S - 10
16.01.2020 03:00:00 9,0 4,0 8 4 S - 10
16.01.2020 02:00:00 6,0 4,0 4 2 - - 10
16.01.2020 01:00:00 7,0 5,0 8 4 S - 10
16.01.2020 00:00:00 8,0 7,0 8 4 SSW - 10
15.01.2020 23:00:00 8,0 7,0 4 2 - - 10
15.01.2020 22:00:00 8,0 7,0 5 3 S - 10
15.01.2020 21:00:00 9,0 7,0 5 3 S - 10
15.01.2020 20:00:00 11,0 8,0 5 3 SSW - 10
15.01.2020 19:00:00 13,2 9,6 2 1 SW 1023,9 30
15.01.2020 18:00:00 14,0 10,0 5 3 NNW - 10
15.01.2020 17:00:00 15,0 9,0 4 2 - - 10
15.01.2020 16:00:00 15,6 3,4 15 8 SE 1020,9 10
15.01.2020 15:00:00 16,0 5,0 8 4 - - 10
15.01.2020 14:00:00 16,0 5,0 5 3 WSW - 10
15.01.2020 13:00:00 16,7 2,7 21 11 SSW 1019,7 10
15.01.2020 12:00:00 16,0 5,0 29 16 SSW - 10
15.01.2020 11:00:00 16,0 4,0 35 19 SSW - 10
15.01.2020 10:00:00 15,2 1,0 26 14 S 1016,6 30
15.01.2020 09:00:00 14,0 3,0 21 11 SSW - 10
15.01.2020 08:00:00 15,0 4,0 34 18 SSW - 10
15.01.2020 07:00:00 14,0 1,6 28 15 S 1015,6 30
15.01.2020 06:00:00 13,0 3,0 26 14 SE - 10
15.01.2020 05:00:00 14,0 2,0 15 8 SSE - 10

tt = temperature
td = dewpoint
ff = wind speed
dd = wind direction
ppp = reduced air pressure
vv = visibility

Next stations